"Pseudo-MPEC" for A11Gbbk

Created 2026 Sep 1 12:35:02 UT using Find_Orb

Click here for an explanation of pseudo-MPECs

 
 Astrometry: 
     A11Gbbk*0C2026 08 31.96769622 41 45.600-48 08 49.85   ~913Z 14.32oVNEOCPM22
     A11Gbbk 0C2026 08 31.97175622 41 45.156-48 06 31.32   ~913Z 14.32oVNEOCPM22
     A11Gbbk 0C2026 08 31.97716822 41 44.554-48 03 26.75   ~913Z 14.30oVNEOCPM22
     A11Gbbk 0C2026 09 01.01081422 41 41.054-47 44 25.69   ~913Z 14.28oVNEOCPM22
     A11Gbbk KC2026 09 01.46448 22 41 53.18 -43 52 39.0    ~91CK 14.7 GVNEOCPE23
     A11Gbbk KC2026 09 01.47074 22 41 52.71 -43 49 46.8    ~91CK 14.6 GVNEOCPE23
     A11Gbbk KC2026 09 01.47700 22 41 52.24 -43 46 54.9    ~91CK 14.6 GVNEOCPE23

Station data:
(E23) Arcadia  (S33.621197 E151.071190)  Australia/NSW.  Observer A. Hidas.
   0.35-m f/1.9 reflector + CCD.
(M22) ATLAS South Africa, Sutherland  (S32.380156 E20.810590)  South Africa.
   Observers L. Denneau, R. Siverd, J. Tonry, H. Weiland. Measurers L.
   Denneau, N. Erasmus, A. Fitzsimmons, J. Robinson, R. Siverd, J. Tonry, H.
   Weiland. 0.5-m f/2.0 Schmidt + CCD.

Orbital elements:  A11Gbbk
   Perihelion 2026 Jul 13.145819 +/- 0.264 TT =  3:29:58.7 (JD 2461234.645819)
Epoch 2026 Sep  1.0 TT = JDT 2461284.5   Earth MOID: 0.0232   Ve: 0.0087
M  15.916085668 +/- 0.6             Ma: 0.0058                   AutoNEOCP
n   0.319252777 +/- 0.0116          Peri.  203.124280 +/- 3.4
a   2.120213487 +/- 0.0515          Node    48.240158 +/- 3.2
e   0.69630964 +/- 0.0087           Incl.    1.565607 +/- 0.035
P   3.08723                H 19.80  G  0.15   U  9.7
q 0.643888380 +/- 0.00302    Q 3.596538593 +/- 0.106      (J2000 ecliptic)
From 7 observations 2026 Aug. 31-Sept. 1 (12.2 hr); mean residual 0".03
Residuals in arcseconds: 
260831 M22  .01+  .02+    260901 M22  .01+  .01-    260901 E23  .03+  .03-    
260831 M22  .04+  .04-    260901 E23  .02+  .03+    
260831 M22  .07-  .02+    260901 E23  .04-  .00     

Ephemerides (geocentric):
Date (UTC) HH   RA             Dec           delta  r     elong  mag " sig PA
---- --------  ------------   ------------  ------ ------ -----  --- --------
2026 09 01 13  22 41 43.610   -43 17 08.56  .05078 1.0512 145.0 14.8 1.20  98
2026 09 01 14  22 41 43.345   -42 58 27.36  .05119 1.0516 145.3 14.8 1.31 100
2026 09 01 15  22 41 43.086   -42 40 03.83  .05160 1.0521 145.6 14.9 1.43 102
2026 09 01 16  22 41 42.832   -42 21 57.62  .05201 1.0526 145.9 14.9 1.55 104
2026 09 01 17  22 41 42.584   -42 04 08.38  .05242 1.0531 146.2 14.9 1.67 106
2026 09 01 18  22 41 42.342   -41 46 35.76  .05284 1.0536 146.4 14.9 1.79 108
2026 09 01 19  22 41 42.104   -41 29 19.44  .05325 1.0540 146.7 14.9 1.92 110
2026 09 01 20  22 41 41.872   -41 12 19.08  .05367 1.0545 147.0 14.9 2.05 112
2026 09 01 21  22 41 41.644   -40 55 34.37  .05409 1.0550 147.2 14.9 2.18 114
2026 09 01 22  22 41 41.421   -40 39 04.99  .05451 1.0555 147.5 14.9 2.32 116
2026 09 01 23  22 41 41.203   -40 22 50.64  .05493 1.0559 147.8 14.9 2.46 118
2026 09 02 00  22 41 40.989   -40 06 51.02  .05535 1.0564 148.0 14.9 2.61 120
2026 09 02 01  22 41 40.779   -39 51 05.84  .05577 1.0569 148.3 15.0 2.76 121
2026 09 02 02  22 41 40.573   -39 35 34.81  .05620 1.0574 148.5 15.0 2.91 123
2026 09 02 03  22 41 40.372   -39 20 17.64  .05662 1.0578 148.7 15.0 3.06 124
2026 09 02 04  22 41 40.174   -39 05 14.07  .05705 1.0583 149.0 15.0 3.22 126
2026 09 02 05  22 41 39.980   -38 50 23.83  .05748 1.0588 149.2 15.0 3.39 127
2026 09 02 06  22 41 39.789   -38 35 46.65  .05791 1.0593 149.4 15.0 3.55 128
2026 09 02 07  22 41 39.602   -38 21 22.28  .05834 1.0598 149.7 15.0 3.72 130
2026 09 02 08  22 41 39.418   -38 07 10.47  .05877 1.0602 149.9 15.0 3.89 131
2026 09 02 09  22 41 39.238   -37 53 10.97  .05920 1.0607 150.1 15.0 4.07 132
2026 09 02 10  22 41 39.061   -37 39 23.55  .05964 1.0612 150.3 15.1 4.25 133
2026 09 02 11  22 41 38.887   -37 25 47.96  .06007 1.0617 150.5 15.1 4.43 134
2026 09 02 12  22 41 38.717   -37 12 23.99  .06051 1.0621 150.7 15.1 4.61 135
2026 09 02 13  22 41 38.549   -36 59 11.39  .06094 1.0626 150.9 15.1 4.80 136
2026 09 02 14  22 41 38.384   -36 46 09.97  .06138 1.0631 151.1 15.1 4.98 137
2026 09 02 15  22 41 38.222   -36 33 19.50  .06182 1.0636 151.3 15.1 5.17 138
2026 09 02 16  22 41 38.063   -36 20 39.77  .06226 1.0640 151.5 15.1 5.37 138
2026 09 02 17  22 41 37.906   -36 08 10.58  .06270 1.0645 151.7 15.1 5.56 139
2026 09 02 18  22 41 37.752   -35 55 51.73  .06314 1.0650 151.9 15.1 5.75 140
2026 09 02 19  22 41 37.601   -35 43 43.03  .06358 1.0655 152.1 15.1 5.95 141
2026 09 02 20  22 41 37.452   -35 31 44.27  .06402 1.0660 152.3 15.2 6.15 141
2026 09 02 21  22 41 37.306   -35 19 55.29  .06447 1.0664 152.5 15.2 6.35 142
2026 09 02 22  22 41 37.162   -35 08 15.88  .06491 1.0669 152.6 15.2 6.55 143
2026 09 02 23  22 41 37.021   -34 56 45.88  .06535 1.0674 152.8 15.2 6.75 143
2026 09 03 00  22 41 36.881   -34 45 25.10  .06580 1.0679 153.0 15.2 6.95 144
2026 09 03 01  22 41 36.744   -34 34 13.39  .06625 1.0683 153.1 15.2 7.15 144
2026 09 03 02  22 41 36.610   -34 23 10.56  .06669 1.0688 153.3 15.2 7.36 145
2026 09 03 03  22 41 36.477   -34 12 16.47  .06714 1.0693 153.5 15.2 7.56 145
2026 09 03 04  22 41 36.347   -34 01 30.94  .06759 1.0698 153.6 15.2 7.77 146
2026 09 03 05  22 41 36.218   -33 50 53.82  .06804 1.0703 153.8 15.3 7.97 146
2026 09 03 06  22 41 36.092   -33 40 24.96  .06849 1.0707 154.0 15.3 8.18 147
2026 09 03 07  22 41 35.968   -33 30 04.21  .06894 1.0712 154.1 15.3 8.39 147
2026 09 03 08  22 41 35.846   -33 19 51.43  .06939 1.0717 154.3 15.3 8.59 148
2026 09 03 09  22 41 35.725   -33 09 46.46  .06984 1.0722 154.4 15.3 8.80 148
2026 09 03 10  22 41 35.607   -32 59 49.18  .07029 1.0726 154.6 15.3 9.01 148
2026 09 03 11  22 41 35.490   -32 49 59.44  .07075 1.0731 154.7 15.3 9.21 149
2026 09 03 12  22 41 35.376   -32 40 17.10  .07120 1.0736 154.9 15.3 9.42 149